sat.trackr.live / text

‹ back to catalog

ONEWEB-0227

NORAD 48792 · 2021-045AB

PAYLOAD ACTIVE UNKNOWN

§ Identity

Operator
Country
UK
Launch date
2021-05-28
Launch site
VOSTO
Launch vehicle
Mass (kg)
RCS (m²)

Purposes: comms

External: N2YO · Heavens-Above · Gunter

§ Orbital elements

Epoch: 2026-09-20T04:54:48.267648Z

Period
109.46 min
Inclination
87.8990°
Eccentricity
0.0001953
Mean motion
13.15547819 rev/d
Perigee alt
1,200.3 km
Apogee alt
1,203.3 km
Semi-major
7,579.9 km
B*
-2.7351e-4
RAAN
240.2468°
Arg perigee
80.4333°
Mean anomaly
279.7018°
Rev number
25,687

§ Raw data

ONEWEB-02271 48792U 21045AB  26263.20472532 -.00000090  00000+0 -27351-3 0  99972 48792  87.8990 240.2468 0001953  80.4333 279.7018 13.15547819256874

JSON: /api/v1/satellites/48792 · /tle

For live sub-satellite position, see the globe view (requires WebGL).

§ Visibility from observer

Set your observer location to see the next 7 days of passes ≥ 10°. The values pass through the URL so the page stays shareable.

No JS? Fill the form by hand. The geolocation button needs JavaScript.